Temperature
15 15 15 16 13 11 13 14 16 18 18 20 20 19 18 17 18 18 17 17 17 17 17 16 17 17 17 17 17 17 17 17 16 16 16 16 16 16 16 16 16 16 16 16 16 16 15 15 15
14 15 15 15 11 12 13 14 16 17 19 20 20 19 17 17 17 17 16 17 17 17 16 16 16 16 16 16 16 16 16 16 16 16 16 16 16 16 16 16 16 16 16 16 16 15 15 15 15
14 14 15 11 11 12 14 16 16 18 20 20 19 18 17 17 16 16 17 17 17 16 16 16 16 16 16 16 16 16 16 16 16 16 16 16 16 16 16 16 16 16 15 15 15 15 15 15 15
14 14 14 11 12 12 14 17 17 17 19 19 18 16 16 17 17 17 17 17 16 16 16 16 16 16 16 16 16 16 16 16 16 16 16 16 16 16 16 16 16 16 15 15 15 15 15 15 15
14 14 11 10 12 13 14 16 17 17 18 19 18 15 15 16 17 17 17 16 16 16 16 16 16 16 16 16 16 16 16 16 16 16 16 16 16 16 16 16 15 15 15 15 15 15 15 15 14
13 11 10 10 12 13 15 17 17 17 17 18 17 15 15 16 16 16 16 16 16 16 15 15 15 15 16 16 16 16 16 16 16 16 16 15 15 15 15 15 15 15 15 15 15 15 15 14 14
12 9 10 11 12 13 15 17 17 16 16 17 18 14 14 15 16 16 16 16 15 15 15 15 15 15 15 15 15 16 16 16 15 15 15 15 15 15 15 15 15 15 15 15 15 14 14 14 14
13 9 11 11 12 14 16 17 17 17 17 18 18 14 14 15 15 15 15 15 15 15 15 15 15 15 15 15 15 15 15 15 15 15 15 15 15 15 15 15 15 15 15 15 15 14 14 14 14
12 9 10 11 13 14 15 16 17 17 17 17 16 17 16 15 15 14 14 14 14 14 14 14 14 14 15 15 15 15 15 15 15 15 15 15 15 15 15 15 15 14 14 14 14 14 14 14 14
11 9 10 12 13 14 15 15 16 16 15 14 15 16 15 15 15 14 14 14 14 14 14 14 14 14 14 14 14 14 14 15 15 15 15 15 15 15 15 14 14 14 14 14 14 14 14 14 14
10 9 11 12 14 15 15 15 15 15 13 14 14 15 15 14 14 14 14 14 14 14 14 14 14 14 14 14 14 14 14 14 14 14 14 15 15 15 14 14 14 14 14 14 14 14 13 13 13
9 10 11 12 14 14 14 14 14 14 15 16 16 16 15 14 14 14 14 14 14 13 13 13 13 13 14 14 14 14 14 14 14 14 14 14 14 14 14 14 14 14 14 14 14 13 13 13 13
9 10 11 12 13 13 13 13 13 13 15 15 15 15 14 14 14 14 14 13 13 13 13 13 13 13 13 13 14 14 14 14 14 14 14 14 14 14 14 14 13 13 13 13 13 13 13 13 13
9 10 10 11 12 12 11 11 12 12 14 14 14 14 14 14 14 13 13 13 13 13 13 13 13 13 13 13 13 13 13 13 13 14 14 13 13 13 13 13 13 13 13 13 13 13 13 13 12
10 9 9 10 11 11 11 10 10 12 13 13 13 13 13 13 13 13 13 13 13 13 13 12 12 12 13 13 13 13 13 13 13 13 13 13 13 13 13 13 13 13 13 13 13 13 12 12 12
8 8 7 9 10 10 10 9 10 12 12 12 12 12 12 12 13 13 13 13 13 12 12 12 12 12 12 12 12 12 12 12 12 13 13 13 13 13 13 13 13 13 12 12 12 12 12 12 12
6 6 7 8 9 9 9 8 9 11 11 10 11 11 11 12 12 12 12 12 12 12 12 12 12 12 12 11 12 12 12 12 12 12 12 12 12 12 13 13 12 12 12 12 12 12 12 12 12
5 6 7 7 8 9 8 8 8 9 9 9 10 10 11 11 11 12 12 12 12 12 12 11 11 11 11 11 11 11 11 11 11 12 12 12 12 12 12 12 12 12 12 12 12 12 11 11 11
6 6 6 7 8 8 8 8 8 8 8 8 8 9 10 10 11 11 11 11 11 11 11 11 11 11 11 11 11 11 11 11 11 11 11 11 12 12 12 12 12 12 12 12 11 11 11 11 11
6 5 6 7 8 8 7 7 7 7 7 8 8 8 9 10 10 10 11 11 11 11 11 11 11 11 10 10 10 11 10 11 11 11 11 11 11 11 11 11 11 11 11 11 11 11 11 11 11
5 5 5 6 7 7 7 6 6 7 7 7 7 8 8 9 9 10 10 10 10 10 10 10 10 10 10 10 10 10 10 10 10 10 10 11 11 11 11 11 11 11 11 11 11 11 11 11 11
4 5 6 6 5 5 6 5 5 6 6 6 6 7 7 8 8 9 9 10 10 10 10 10 10 10 10 10 10 10 10 10 10 10 10 10 10 10 11 11 11 11 11 11 11 11 11 11 11
4 5 5 5 5 4 5 4 4 5 5 5 5 6 6 7 7 8 9 9 10 10 10 10 10 9 9 9 9 10 10 10 10 10 10 10 10 10 10 10 10 10 10 10 10 10 10 10 10
4 4 5 4 4 4 4 4 4 4 5 5 5 5 6 6 7 7 8 8 9 9 9 9 9 9 9 9 9 9 9 10 10 10 10 10 10 10 10 10 10 10 10 10 10 10 10 10 10
3 3 2 3 3 4 4 4 3 3 4 5 5 5 5 6 6 6 7 7 8 8 8 9 9 9 9 8 8 9 9 9 9 10 10 9 9 9 9 9 9 9 10 10 9 9 9 9 9
2 2 2 3 3 3 4 3 3 3 4 4 4 4 4 5 5 5 6 7 7 8 8 8 8 8 8 8 8 8 8 8 9 9 9 9 9 9 9 9 9 9 9 9 9 9 9 9 8
2 2 2 2 2 2 3 2 3 3 3 3 3 3 3 3 4 4 5 6 6 7 7 7 7 7 7 7 8 8 8 8 8 8 8 9 9 8 8 8 8 8 8 8 8 8 8 8 8
2 1 1 1 2 3 2 2 1 1 2 2 1 1 2 2 3 4 4 5 5 6 6 6 7 7 7 7 7 7 7 7 7 8 8 8 8 8 8 8 8 8 8 8 8 8 8 7 7
0 0 0 0 1 1 1 1 1 1 1 0 0 0 1 1 2 2 3 4 4 5 5 5 6 6 6 6 6 6 7 7 7 7 7 7 8 7 7 7 7 7 7 7 7 7 7 7 7
-0 -1 -1 -0 -0 0 0 0 -0 -0 -0 -0 -1 -0 -0 0 1 1 2 2 3 4 4 4 5 5 5 5 6 6 6 6 6 6 7 7 7 7 7 7 7 7 7 7 7 7 7 7 7
Wind_Speed
6 5 3 4 5 4 5 7 5 3 3 2 2 6 8 5 4 5 4 8 12 12 15 17 18 17 17 17 17 17 16 16 16 16 16 15 15 15 15 14 14 15 15 15 15 15 15 15 15
3 2 4 5 5 3 6 7 7 7 5 3 4 6 7 4 3 7 5 9 13 13 14 15 18 18 17 17 17 17 16 15 15 15 15 15 15 14 15 14 14 14 15 15 14 14 14 14 14
3 1 4 5 5 8 7 6 9 6 3 3 3 5 6 5 5 5 7 12 12 11 14 16 18 17 17 17 17 16 15 15 14 14 15 14 14 14 15 14 14 14 14 14 14 14 13 13 12
3 4 4 3 7 7 7 5 3 4 1 1 5 5 3 1 4 6 11 12 13 9 13 16 17 17 17 16 16 16 15 15 14 14 14 14 14 14 14 14 14 14 14 13 13 13 12 11 11
4 4 3 3 7 6 6 5 2 3 3 2 5 6 2 4 6 12 12 13 13 10 12 15 16 16 16 16 16 16 15 15 14 14 14 14 14 14 14 14 14 14 13 13 13 12 11 10 11
3 4 4 6 7 5 5 5 3 3 3 2 6 6 2 2 8 11 11 11 11 11 11 14 16 15 15 15 15 15 15 14 14 14 14 14 14 14 14 14 13 13 13 13 12 11 10 10 10
5 4 5 6 5 6 6 4 5 5 4 4 7 7 4 2 5 9 11 11 10 10 9 10 13 13 14 14 14 15 14 14 14 14 14 14 14 14 13 13 13 13 12 12 11 11 10 9 9
5 5 4 5 6 6 4 3 4 6 5 2 6 9 7 6 6 9 10 10 10 8 8 8 10 11 11 12 13 14 14 14 14 14 14 14 13 13 13 13 13 12 12 12 11 10 9 9 9
5 3 7 6 7 5 3 3 2 2 4 3 2 4 6 11 11 11 10 8 8 8 7 7 8 9 10 10 11 13 13 13 13 13 13 13 11 11 11 11 12 12 12 12 11 9 8 8 8
5 7 9 5 5 4 2 3 3 3 3 2 3 4 8 11 13 13 12 11 10 9 7 7 7 7 8 9 9 10 10 11 11 11 11 11 11 10 10 11 12 12 12 11 10 9 8 7 6
6 8 5 5 4 2 1 2 1 6 4 5 7 9 11 10 11 11 11 11 11 10 8 7 7 7 7 7 8 8 8 9 9 10 10 10 10 9 9 9 9 9 9 8 8 8 7 6 6
5 7 5 4 3 3 2 1 1 3 6 6 10 13 12 12 11 11 11 10 9 9 8 7 6 6 7 7 7 7 7 7 7 8 9 10 8 7 7 7 8 7 8 7 7 6 6 6 6
9 5 5 5 4 4 2 2 2 4 3 3 8 10 12 11 9 7 8 8 8 9 8 7 7 7 6 6 6 6 6 6 8 8 9 10 8 6 6 7 7 7 8 7 7 6 6 5 5
6 7 7 6 6 4 4 4 3 6 2 5 9 10 10 10 9 7 7 7 8 9 8 8 8 7 7 6 4 5 7 7 8 8 9 10 9 7 6 6 6 6 7 8 7 6 5 4 4
5 6 7 8 7 5 3 6 7 7 3 5 7 8 8 8 7 8 8 8 9 9 8 8 8 7 7 6 6 6 7 7 6 7 9 10 10 9 7 5 5 6 7 8 7 7 6 4 3
4 6 8 7 8 7 7 12 6 6 6 5 5 6 6 6 7 7 7 7 7 8 8 8 8 8 7 6 6 6 7 7 6 7 8 9 10 10 8 5 4 6 7 7 5 4 4 3 3
4 8 10 6 7 6 8 8 5 4 6 5 5 5 6 5 5 6 6 7 7 8 9 8 7 8 7 6 5 6 7 6 7 7 8 8 10 10 9 6 6 7 6 5 4 3 4 4 3
8 8 8 8 5 7 9 8 2 3 5 5 5 4 5 6 7 6 6 7 7 7 8 8 7 7 7 6 5 4 4 4 5 6 7 8 9 10 9 7 6 7 4 3 3 4 4 4 4
6 6 8 6 5 7 10 9 6 3 3 4 4 4 4 5 4 4 5 5 6 6 6 7 7 7 7 5 5 4 4 3 3 4 7 8 8 9 8 6 6 6 4 5 5 4 5 3 4
8 8 7 4 4 6 6 7 5 4 4 4 5 4 4 3 2 3 4 5 5 7 7 7 7 8 7 6 5 4 4 3 3 3 5 7 8 8 7 6 5 5 4 5 5 4 3 2 3
9 10 8 6 3 3 3 4 4 3 3 2 2 2 2 3 4 4 4 4 5 5 7 7 7 7 7 7 5 4 4 3 2 2 3 4 7 7 7 7 6 5 5 5 5 5 5 4 2
10 8 8 7 4 5 6 5 5 4 3 3 3 2 2 2 3 3 4 4 5 5 5 6 7 6 6 7 7 8 6 4 4 3 3 3 6 6 7 7 7 6 5 5 5 4 4 5 3
6 5 8 9 7 4 4 4 4 4 5 7 6 4 3 3 3 3 4 5 5 4 4 5 6 6 6 7 8 8 5 4 3 3 4 3 3 5 6 7 6 5 5 5 5 4 4 4 4
4 2 3 4 5 8 8 6 3 3 7 6 5 4 4 4 3 3 3 3 3 2 3 3 5 5 6 7 7 7 7 6 5 4 4 3 2 2 4 6 6 5 4 5 5 5 5 4 3
1 2 1 3 6 7 7 5 4 2 2 5 6 5 3 3 3 2 3 3 3 3 2 3 4 4 4 6 6 7 7 7 7 6 5 4 3 2 4 4 4 4 5 5 5 4 4 4 4
4 5 5 4 5 2 5 6 2 1 1 1 2 3 3 3 2 2 3 4 3 3 3 3 3 3 4 5 5 5 5 5 4 5 5 5 4 4 3 4 4 5 5 5 5 3 4 3 4
2 3 3 2 1 2 3 2 1 5 6 6 5 4 4 3 3 3 3 3 3 3 2 3 3 2 2 3 3 3 4 4 4 4 4 4 3 3 4 4 4 4 5 5 5 4 4 4 4
1 2 1 2 3 4 3 3 1 2 3 5 6 5 4 4 4 4 4 3 3 2 2 2 2 2 2 2 3 2 3 3 4 4 5 4 4 4 4 4 4 4 4 5 5 4 4 4 4
3 1 1 2 2 3 3 1 1 1 2 3 4 5 5 5 5 4 4 4 4 4 3 3 2 2 1 1 1 2 2 2 3 4 4 5 4 5 5 5 5 5 5 5 5 5 5 5 4
2 2 1 1 1 2 2 1 5 4 4 5 5 6 6 5 5 4 5 5 5 5 3 2 2 1 0 1 1 2 2 2 3 3 3 4 5 5 5 5 6 5 5 5 6 6 5 6 6
Wind_Direction
330 354 74 60 63 67 229 239 228 230 221 214 131 117 118 118 144 157 127 136 135 143 148 145 143 140 140 140 137 135 132 130 128 128 127 126 125 123 120 118 115 113 112 111 108 105 104 101 99
350 30 62 67 111 176 249 239 226 225 213 165 113 102 92 88 92 111 122 143 138 141 143 144 143 140 139 139 140 138 137 135 132 131 130 129 128 127 125 121 118 115 113 112 111 110 108 104 100
339 74 92 98 157 192 221 226 220 236 231 178 101 74 107 129 129 136 149 142 135 137 140 143 143 141 139 140 142 142 141 140 137 134 133 132 132 130 128 124 122 118 116 116 115 113 111 107 103
58 56 68 119 215 222 215 221 195 182 197 130 117 86 80 95 159 142 139 137 133 132 137 143 142 142 140 140 142 143 143 143 142 140 138 137 136 133 129 128 127 125 123 121 121 119 115 108 106
66 90 123 221 234 243 239 244 216 197 184 156 120 114 81 350 112 128 136 136 136 135 136 142 141 141 141 141 142 144 145 145 145 144 143 141 139 137 133 131 130 130 128 127 127 124 118 112 107
75 91 152 219 235 248 249 233 212 217 212 159 123 121 138 86 123 135 137 136 137 138 137 143 142 141 141 141 143 145 146 146 147 146 145 144 142 140 138 136 134 133 133 133 132 129 124 116 111
135 141 198 209 225 244 240 212 191 199 200 190 146 127 146 154 143 137 134 132 131 132 134 140 142 142 141 141 145 148 148 148 148 147 146 145 144 142 143 142 141 138 137 137 137 134 127 119 113
152 149 213 214 208 233 235 194 192 183 200 173 133 145 174 184 146 128 126 127 130 133 134 137 139 139 140 143 143 146 147 149 148 145 143 143 144 144 145 146 145 143 141 139 139 138 131 124 115
132 157 218 209 196 224 237 191 203 166 129 86 94 160 165 142 134 127 125 124 135 140 141 137 135 138 140 144 146 143 144 146 145 144 143 141 141 142 143 145 148 148 147 145 144 141 137 129 119
160 205 221 209 194 200 235 204 188 136 118 97 67 72 118 135 142 145 150 153 156 158 157 149 142 141 142 146 142 141 142 144 144 145 145 146 147 147 145 144 148 151 152 151 151 147 140 129 118
188 212 214 234 244 238 260 272 203 155 184 189 169 154 144 146 151 157 160 162 165 163 161 157 152 148 146 141 143 140 140 143 146 147 149 149 147 146 145 143 148 149 150 149 152 146 139 129 125
214 232 214 227 240 258 240 259 262 189 210 186 167 157 153 157 163 167 167 165 162 161 165 159 156 152 149 145 147 143 141 145 147 150 150 148 143 144 148 148 151 150 150 148 147 143 139 133 132
235 243 228 242 254 250 256 237 229 257 253 154 146 150 161 167 171 172 166 163 159 163 166 163 157 156 152 145 149 147 150 152 154 152 153 151 147 151 151 152 154 155 153 149 148 143 137 129 127
235 246 258 256 249 244 234 256 217 251 211 137 151 169 175 176 174 164 162 168 168 170 169 164 163 157 149 151 150 149 156 156 153 154 157 156 152 149 150 150 153 157 160 157 152 146 140 134 124
238 258 269 245 229 225 199 263 226 222 173 158 170 178 178 181 173 176 178 176 174 173 168 167 166 155 153 153 154 152 156 153 153 157 160 160 157 154 152 150 152 160 160 153 143 135 131 128 119
214 226 246 245 213 207 181 242 233 208 179 191 188 181 180 188 185 185 180 175 171 165 166 169 166 158 156 152 151 150 153 152 156 158 159 161 163 159 151 150 154 155 149 143 141 136 132 130 130
212 221 229 242 211 188 191 239 237 198 176 193 200 194 189 191 198 194 182 174 170 168 166 166 161 161 159 150 145 146 148 149 154 154 155 159 161 160 154 153 155 151 141 141 147 139 136 134 133
218 218 223 218 209 188 208 230 222 190 167 195 208 205 195 195 205 195 183 174 168 164 162 164 161 162 155 146 137 136 137 140 147 150 156 156 156 157 152 151 152 147 137 133 137 136 128 136 135
239 229 233 232 214 199 213 222 218 208 188 203 212 210 209 211 201 174 161 160 159 159 159 162 162 163 156 157 156 155 163 158 156 152 158 156 153 154 151 149 148 148 147 151 145 133 133 131 126
250 250 250 263 250 218 213 226 222 200 204 196 198 205 207 197 154 146 148 149 159 167 168 168 168 166 165 168 166 156 149 153 158 145 153 156 153 155 157 152 153 152 146 144 144 134 136 144 143
245 234 237 240 275 243 188 255 237 230 214 166 156 171 172 176 183 170 157 156 157 166 173 176 173 166 167 157 141 123 110 103 112 152 168 158 158 157 155 158 156 155 153 158 159 155 151 165 178
249 239 239 237 228 236 198 228 239 206 215 228 231 197 192 194 186 178 166 167 171 178 177 174 169 163 165 158 157 155 158 164 180 176 176 161 160 160 161 160 160 159 156 160 168 167 161 158 172
246 259 242 231 216 236 217 201 266 186 211 229 229 220 206 194 187 179 176 179 176 169 163 165 160 160 160 163 167 167 162 165 152 152 154 164 157 163 166 165 162 163 162 164 164 162 161 167 169
261 271 271 229 196 226 216 192 255 210 215 217 219 214 206 191 181 170 162 155 148 137 134 143 154 159 163 166 169 173 169 160 154 163 169 174 174 166 166 168 166 165 165 169 169 167 169 174 165
311 142 200 209 208 226 182 178 242 268 221 195 199 198 185 163 148 123 112 122 123 127 132 135 149 156 161 168 174 179 177 172 175 178 181 178 178 189 194 176 169 167 171 169 162 164 174 176 172
238 190 193 206 205 212 166 188 229 338 58 96 131 133 107 98 109 114 123 127 127 129 128 130 141 151 162 171 177 177 173 175 183 183 181 185 191 195 183 178 176 175 173 170 164 168 180 175 180
220 231 223 207 225 191 182 181 316 24 41 45 53 66 73 75 75 75 85 96 107 117 134 146 144 140 158 171 172 169 170 175 181 182 180 184 183 178 174 178 180 177 173 170 164 180 186 177 185
190 200 129 186 196 211 182 172 221 4 28 33 44 48 40 44 50 52 53 63 79 103 103 101 125 152 160 169 178 179 181 184 181 175 182 184 181 172 174 182 184 184 178 173 171 176 181 180 190
348 8 234 205 189 187 186 203 346 116 63 46 32 37 42 44 50 50 47 53 57 61 73 75 82 81 98 157 175 171 180 183 179 182 190 186 178 174 179 184 187 191 188 181 179 184 182 187 191
32 20 10 192 256 187 158 195 6 38 55 55 39 35 37 40 39 42 43 45 46 44 47 58 64 65 66 193 169 176 173 167 171 185 190 180 179 179 180 181 185 191 192 187 186 191 190 191 194
Height
1510 1511 1512 1515 1519 1529 1527 1517 1508 1503 1501 1498 1498 1498 1500 1504 1508 1514 1512 1512 1515 1518 1522 1525 1528 1530 1533 1535 1536 1538 1540 1541 1542 1544 1545 1546 1547 1548 1549 1550 1551 1552 1552 1553 1554 1555 1555 1556 1557
1509 1511 1513 1514 1523 1532 1525 1511 1504 1499 1497 1497 1498 1498 1500 1503 1505 1507 1509 1513 1516 1519 1521 1524 1527 1530 1532 1534 1536 1538 1540 1541 1543 1544 1545 1546 1548 1549 1550 1551 1552 1553 1553 1554 1555 1556 1557 1557 1558
1509 1510 1512 1515 1523 1523 1514 1502 1498 1495 1496 1496 1497 1498 1501 1503 1505 1506 1509 1512 1516 1519 1521 1524 1527 1530 1532 1534 1536 1538 1540 1541 1543 1544 1546 1547 1548 1549 1550 1551 1552 1553 1554 1555 1556 1557 1558 1558 1559
1508 1510 1512 1517 1517 1510 1503 1496 1494 1494 1495 1495 1496 1500 1502 1504 1505 1507 1509 1512 1515 1518 1521 1524 1527 1529 1531 1534 1536 1538 1539 1541 1543 1544 1546 1547 1548 1549 1550 1552 1553 1554 1555 1556 1557 1558 1559 1559 1560
1507 1508 1513 1517 1512 1503 1497 1494 1494 1494 1494 1494 1495 1499 1502 1504 1505 1507 1509 1512 1514 1517 1520 1523 1526 1529 1531 1533 1535 1537 1539 1541 1542 1544 1546 1547 1548 1550 1551 1552 1553 1554 1555 1557 1558 1559 1560 1561 1561
1506 1507 1516 1515 1507 1498 1494 1493 1494 1494 1493 1494 1495 1498 1501 1504 1504 1506 1509 1511 1514 1517 1520 1523 1525 1528 1530 1532 1535 1537 1538 1540 1542 1544 1545 1547 1548 1549 1551 1552 1553 1555 1556 1557 1558 1560 1561 1562 1562
1504 1508 1510 1507 1502 1498 1492 1491 1492 1492 1493 1493 1493 1497 1500 1503 1504 1506 1509 1511 1514 1517 1519 1522 1525 1527 1529 1531 1534 1536 1538 1540 1542 1543 1545 1546 1548 1549 1551 1552 1554 1555 1556 1558 1559 1560 1561 1562 1563
1501 1505 1504 1502 1498 1494 1489 1489 1489 1490 1491 1492 1493 1494 1498 1501 1503 1506 1509 1511 1513 1516 1518 1521 1523 1526 1528 1530 1533 1535 1537 1539 1541 1543 1544 1546 1548 1549 1551 1552 1554 1555 1557 1558 1559 1561 1562 1563 1564
1498 1505 1501 1496 1493 1490 1486 1487 1487 1488 1489 1490 1491 1492 1494 1498 1501 1505 1507 1510 1512 1515 1517 1520 1522 1525 1527 1529 1531 1533 1536 1538 1540 1542 1544 1545 1547 1549 1550 1552 1554 1555 1557 1558 1559 1561 1562 1563 1564
1495 1498 1491 1487 1486 1486 1485 1485 1486 1487 1488 1489 1490 1491 1494 1496 1499 1502 1504 1507 1509 1512 1515 1518 1520 1523 1525 1528 1530 1532 1534 1536 1539 1541 1543 1544 1546 1548 1550 1552 1553 1555 1556 1558 1559 1561 1562 1564 1565
1488 1488 1485 1484 1484 1484 1484 1484 1485 1485 1488 1487 1487 1489 1492 1495 1498 1500 1502 1505 1507 1510 1513 1516 1519 1521 1524 1526 1528 1530 1533 1535 1537 1539 1541 1543 1545 1547 1549 1551 1553 1554 1556 1557 1559 1561 1562 1563 1565
1485 1482 1482 1482 1483 1483 1483 1483 1484 1484 1484 1485 1486 1488 1490 1493 1495 1498 1500 1503 1506 1509 1511 1514 1517 1519 1522 1524 1527 1529 1531 1533 1535 1538 1540 1542 1544 1546 1548 1549 1551 1553 1555 1557 1558 1560 1562 1563 1565
1482 1480 1480 1481 1482 1482 1482 1483 1483 1482 1483 1484 1485 1486 1488 1491 1494 1497 1500 1502 1505 1507 1510 1512 1515 1518 1520 1523 1525 1527 1529 1532 1534 1536 1538 1540 1542 1544 1546 1548 1550 1552 1554 1556 1558 1559 1561 1563 1564
1478 1479 1479 1479 1480 1480 1481 1481 1482 1480 1482 1483 1483 1485 1487 1489 1492 1495 1497 1500 1502 1505 1508 1510 1513 1516 1518 1521 1523 1525 1528 1530 1532 1534 1537 1539 1541 1543 1545 1547 1549 1551 1553 1555 1557 1558 1560 1562 1563
1478 1479 1478 1476 1477 1478 1480 1481 1478 1479 1480 1481 1482 1484 1485 1487 1490 1492 1495 1497 1500 1503 1506 1509 1511 1514 1517 1519 1522 1524 1526 1529 1531 1533 1535 1537 1540 1542 1544 1546 1548 1550 1552 1554 1555 1557 1559 1561 1562
1476 1479 1480 1473 1474 1476 1482 1478 1474 1476 1477 1478 1480 1482 1484 1485 1488 1490 1493 1495 1498 1501 1504 1506 1509 1512 1515 1517 1520 1522 1524 1527 1529 1531 1533 1536 1538 1540 1542 1544 1546 1548 1550 1552 1554 1556 1557 1559 1561
1477 1478 1476 1473 1470 1472 1476 1475 1473 1473 1475 1476 1478 1480 1481 1483 1485 1488 1490 1493 1496 1499 1501 1504 1507 1510 1512 1515 1518 1520 1522 1525 1527 1529 1531 1534 1536 1538 1541 1542 1545 1547 1549 1551 1552 1554 1556 1558 1559
1475 1474 1472 1471 1468 1470 1473 1472 1472 1472 1473 1474 1476 1477 1479 1480 1482 1485 1488 1491 1494 1497 1499 1502 1505 1508 1511 1513 1516 1518 1520 1523 1525 1527 1529 1532 1534 1536 1539 1541 1543 1545 1547 1549 1551 1552 1554 1556 1558
1470 1471 1470 1468 1466 1468 1469 1470 1471 1471 1471 1472 1474 1474 1476 1477 1480 1483 1485 1488 1491 1494 1496 1499 1502 1505 1508 1510 1512 1514 1517 1520 1522 1525 1527 1529 1532 1534 1536 1538 1540 1542 1544 1546 1549 1550 1552 1554 1556
1470 1470 1470 1467 1465 1466 1468 1469 1468 1469 1470 1471 1472 1473 1474 1475 1477 1480 1482 1485 1487 1490 1493 1496 1499 1502 1505 1507 1510 1513 1516 1518 1520 1523 1525 1527 1529 1532 1534 1536 1538 1540 1542 1544 1546 1548 1550 1552 1554
1468 1470 1469 1468 1466 1464 1468 1470 1469 1468 1468 1469 1470 1471 1472 1473 1474 1477 1479 1482 1484 1487 1490 1493 1496 1499 1502 1505 1508 1511 1514 1516 1518 1520 1522 1524 1527 1529 1532 1534 1536 1537 1539 1541 1543 1546 1548 1549 1551
1466 1464 1465 1466 1469 1470 1467 1472 1468 1467 1467 1467 1468 1468 1469 1471 1472 1474 1476 1478 1481 1484 1487 1490 1493 1496 1499 1502 1505 1507 1509 1511 1514 1517 1520 1522 1524 1527 1529 1531 1533 1535 1537 1539 1541 1543 1545 1547 1548
1464 1461 1462 1463 1467 1470 1467 1472 1469 1465 1466 1465 1466 1466 1467 1469 1470 1471 1474 1476 1479 1482 1484 1487 1491 1493 1497 1500 1502 1505 1507 1510 1513 1515 1517 1519 1522 1524 1526 1528 1530 1532 1534 1536 1538 1540 1542 1544 1545
1462 1462 1461 1462 1465 1469 1464 1469 1470 1466 1462 1462 1463 1464 1465 1466 1468 1469 1471 1474 1476 1479 1482 1485 1488 1491 1494 1497 1499 1502 1505 1507 1510 1512 1514 1516 1518 1520 1523 1525 1527 1529 1531 1533 1535 1537 1539 1541 1543
1463 1467 1470 1467 1465 1462 1460 1466 1468 1463 1460 1460 1460 1461 1462 1463 1465 1466 1468 1471 1473 1476 1479 1482 1485 1488 1491 1494 1496 1499 1502 1504 1507 1509 1511 1513 1515 1517 1519 1522 1524 1526 1528 1530 1532 1534 1536 1537 1539
1464 1465 1470 1467 1461 1461 1460 1465 1468 1462 1460 1459 1459 1460 1460 1461 1463 1465 1466 1469 1471 1474 1476 1479 1482 1485 1488 1491 1494 1496 1499 1501 1504 1506 1508 1510 1512 1514 1516 1518 1520 1522 1524 1526 1529 1530 1532 1534 1536
1464 1465 1464 1466 1464 1464 1464 1467 1465 1462 1461 1460 1460 1459 1459 1461 1462 1464 1465 1467 1469 1472 1474 1477 1480 1482 1485 1488 1490 1493 1495 1498 1500 1502 1505 1507 1509 1511 1513 1515 1517 1519 1521 1523 1525 1527 1528 1530 1532
1465 1465 1467 1468 1464 1460 1464 1467 1470 1466 1465 1463 1462 1461 1461 1461 1462 1463 1464 1466 1468 1470 1473 1475 1478 1480 1482 1485 1487 1489 1492 1494 1497 1499 1501 1503 1505 1507 1509 1511 1513 1515 1517 1519 1521 1523 1525 1527 1529
1468 1468 1468 1468 1466 1464 1466 1474 1469 1468 1467 1466 1465 1464 1463 1462 1463 1463 1464 1465 1467 1468 1471 1473 1475 1477 1479 1482 1484 1486 1488 1491 1493 1495 1497 1499 1501 1503 1505 1507 1510 1511 1514 1516 1517 1519 1521 1523 1525
1472 1473 1472 1471 1469 1468 1472 1479 1472 1469 1468 1468 1467 1466 1465 1464 1464 1464 1464 1465 1466 1467 1469 1471 1473 1475 1477 1479 1481 1483 1485 1487 1489 1491 1493 1495 1497 1500 1502 1504 1506 1508 1510 1512 1514 1516 1518 1519 1521